Helicity
-12 -14 -17 4 1 10 24 34 41 47 53 56 57 66 71 64 61 57 50 47 49 47 56 51 55 74 123 138 176 187 182 159 174 163 168 191 226 220 238 218 232 238 200 169 148 161 126
-30 -30 -11 6 20 28 35 41 49 48 49 55 61 59 59 62 61 57 55 55 52 60 68 50 68 144 163 199 196 174 193 178 160 169 167 177 160 168 208 233 221 223 154 156 138 117 137
-1 -4 8 18 23 26 22 24 43 48 49 53 56 64 62 57 54 53 50 47 49 63 64 50 83 205 246 235 283 224 185 178 164 159 179 169 187 219 237 195 174 159 146 136 131 118 109
-5 -2 10 12 24 28 26 32 44 57 59 57 63 68 63 61 61 59 52 43 61 76 60 96 140 212 221 231 225 201 175 172 162 161 196 222 229 234 213 183 164 148 106 125 75 60 43
1 10 16 24 22 16 24 38 49 55 64 69 64 62 67 66 65 65 57 55 66 67 92 141 203 217 182 167 154 124 127 194 200 201 201 196 187 229 226 214 185 174 141 146 137 53 121
10 17 25 29 27 29 28 40 54 70 72 79 75 72 69 68 64 66 62 58 52 126 172 159 198 205 220 279 288 253 194 189 200 231 259 258 269 264 272 256 179 109 147 129 118 111 108
25 31 43 47 51 57 69 73 79 88 102 107 101 83 76 73 68 77 85 33 95 130 267 203 175 353 301 284 182 156 178 232 251 287 305 262 292 292 174 314 190 161 139 93 118 89 108
42 48 54 63 63 76 82 84 92 119 136 139 116 96 82 75 67 71 87 101 115 124 154 74 71 175 214 215 149 112 186 229 285 264 319 347 271 118 135 122 122 114 104 93 72 50 53
72 70 63 72 74 75 80 83 103 124 145 162 114 85 86 72 70 128 110 88 110 100 129 99 113 111 119 116 82 102 122 167 209 242 204 246 166 155 162 156 130 134 155 120 100 127 94
78 76 77 77 79 94 93 87 114 126 159 168 134 105 98 103 154 135 106 115 108 70 142 100 119 110 102 73 123 131 103 204 218 194 175 151 130 129 115 133 138 155 95 120 138 142 87
113 108 102 104 85 90 104 101 107 120 149 148 129 111 119 123 166 131 105 109 84 75 366 150 161 87 138 125 146 163 162 253 199 172 177 180 155 113 140 159 170 139 132 131 150 177 178
152 148 123 113 103 113 114 106 115 127 133 122 115 98 136 144 191 142 127 99 87 257 152 292 221 175 158 168 227 261 243 222 171 186 222 168 178 133 156 139 144 173 183 206 208 192 211
235 180 178 141 109 109 120 109 123 133 118 102 99 95 144 186 181 161 131 139 237 493 375 293 216 255 208 234 258 232 247 279 198 199 178 135 146 203 199 195 203 217 274 285 257 239 197
282 183 161 154 179 203 212 228 206 155 99 89 91 103 161 193 189 221 175 254 408 499 447 411 305 222 265 253 229 262 275 248 181 236 236 190 200 133 170 192 204 226 221 253 221 237 194
301 244 204 206 207 228 203 156 127 111 110 134 118 183 240 172 246 230 266 425 665 563 451 350 311 245 280 219 191 186 179 200 157 264 243 232 212 190 171 163 190 172 214 174 243 201 201
245 204 184 191 180 175 161 146 133 128 136 141 157 200 267 239 217 269 328 472 527 531 457 370 270 258 287 249 247 258 198 166 152 151 211 184 226 183 196 197 202 196 182 270 261 245 248
169 155 170 170 170 156 145 141 141 128 128 90 166 221 285 202 217 278 420 426 370 404 269 363 444 261 291 309 198 280 225 199 206 183 245 258 239 219 222 185 184 232 246 208 215 277 272
125 138 151 158 152 134 125 127 134 163 180 167 212 308 243 210 270 355 408 342 327 245 242 219 324 212 344 241 268 242 245 242 209 254 265 218 194 259 238 256 231 250 224 227 241 245 225
155 161 159 150 143 143 142 143 150 165 221 157 227 284 323 370 302 282 197 208 213 277 64 295 404 331 196 275 245 305 239 224 258 331 193 226 201 240 274 278 300 278 290 278 266 229 226
170 160 150 144 138 125 126 161 189 185 187 175 216 272 287 308 251 228 263 176 69 99 89 215 66 114 170 179 344 190 231 181 204 225 214 276 267 278 246 269 291 342 325 260 248 216 223
148 144 139 136 134 140 120 100 96 79 76 106 138 167 253 234 252 210 139 131 39 -56 -48 59 -8 -188 -155 -61 -52 66 132 184 486 415 304 292 286 633 479 444 594 509 506 501 403 332 300
155 162 142 127 109 90 53 44 30 32 30 75 95 156 181 200 149 90 162 145 73 25 -67 -134 -85 -87 -83 -59 -41 11 5 28 75 280 372 507 307 426 479 492 559 740 617 506 546 403 452
155 138 141 110 60 28 27 32 40 27 21 39 60 97 141 148 87 99 83 65 74 96 57 126 41 -84 28 -8 -138 -98 -121 -28 -5 34 72 55 224 312 321 233 392 486 494 363 276 372 254
135 112 92 64 53 56 41 24 26 23 8 18 3 8 47 63 62 48 72 89 96 71 114 64 68 78 143 34 15 -1 -3 10 134 163 128 78 84 103 85 124 273 169 190 175 129 139 130
76 51 70 83 79 60 31 25 13 31 31 3 -17 -11 29 28 35 33 64 114 48 104 61 65 69 71 48 39 68 96 68 75 130 167 320 253 103 149 142 259 168 145 143 126 116 98 96
48 66 55 46 67 68 57 52 49 21 15 20 55 -12 18 52 23 41 41 102 61 124 36 46 63 43 68 49 59 64 77 55 112 125 112 246 249 77 120 178 168 86 60 26 1 78 12
56 53 37 27 26 45 26 15 6 -3 42 25 -36 5 50 -30 18 64 15 70 81 100 95 62 40 35 30 48 60 57 31 12 47 57 92 88 119 143 118 68 56 -7 -2 -11 90 43 23
11 7 15 12 4 -27 -13 15 14 19 31 -5 -5 41 -12 -55 -8 86 92 95 74 92 60 139 21 36 2 8 18 10 20 13 30 43 76 84 68 92 92 88 83 -17 -25 9 -8 -3 -11
22 -6 -11 17 -1 -4 -27 -33 -16 34 26 15 -41 -62 -108 -35 -30 58 102 147 171 167 103 21 34 44 14 -10 -35 -19 -29 -38 12 4 15 23 2 -9 -8 -38 -48 -48 -29 -34 33 25 -6
Wind_Speed
41 43 55 67 69 71 71 70 69 69 69 71 74 77 78 78 77 76 76 76 79 78 76 77 75 68 55 54 53 47 39 37 36 34 36 37 41 46 55 54 57 65 69 67 68 70 72
51 59 67 69 68 67 64 64 64 66 66 69 70 69 73 75 76 76 78 80 79 76 74 73 70 52 55 69 41 36 32 33 34 35 38 39 46 45 56 58 62 61 66 71 70 71 71
64 64 64 64 63 63 66 67 67 67 68 68 68 72 76 79 80 81 81 80 77 72 72 72 59 44 55 58 42 35 32 35 35 37 43 42 41 45 46 60 57 65 82 79 70 69 69
63 62 62 64 64 66 68 70 70 71 72 73 75 77 77 79 83 84 85 83 77 72 72 58 44 48 66 44 38 34 31 36 35 36 38 36 35 42 47 52 60 70 72 85 64 57 57
62 62 64 65 68 72 73 73 72 73 75 75 78 79 81 82 83 85 89 94 87 77 60 44 51 54 73 38 40 33 27 35 34 35 36 34 35 43 46 58 71 66 83 81 79 57 69
64 65 67 70 72 72 73 75 74 74 77 77 77 79 81 82 86 87 93 90 75 58 51 46 52 61 53 57 42 36 34 39 39 36 40 40 44 51 54 61 85 82 75 72 72 62 66
63 65 67 67 66 66 68 70 72 74 77 80 78 79 79 82 83 85 88 78 77 71 60 76 77 78 72 59 55 54 47 44 42 45 55 47 58 66 66 48 57 64 72 84 76 70 77
62 64 65 68 65 67 70 73 74 76 78 80 79 78 79 80 83 85 67 76 71 74 101 74 74 71 60 54 62 52 27 38 39 53 43 49 59 44 45 45 55 64 76 83 75 63 62
61 61 67 67 67 70 75 75 75 77 79 82 82 80 79 79 80 65 74 71 63 70 89 90 66 57 49 35 45 44 25 32 39 38 35 44 46 37 45 57 58 59 66 74 77 73 69
60 65 66 67 69 73 77 78 78 79 81 83 79 78 77 76 70 68 76 63 60 61 93 84 63 53 44 41 50 31 25 32 38 43 41 47 45 50 51 52 50 71 55 66 70 72 78
65 66 70 74 79 81 80 83 87 83 82 81 78 77 77 69 71 71 67 59 58 59 103 65 55 39 42 45 47 40 33 35 45 43 42 54 50 49 56 59 48 60 51 54 57 61 68
67 72 77 81 85 85 84 88 87 84 82 79 77 77 73 65 60 60 55 56 60 79 101 65 53 53 51 47 49 42 37 37 42 50 52 58 50 52 54 45 38 39 48 52 53 56 76
71 78 80 84 81 81 84 85 85 84 85 79 78 74 70 60 69 51 53 62 85 87 66 68 62 51 59 60 55 47 53 53 57 68 69 62 58 49 41 48 41 38 43 62 69 65 71
73 77 82 83 83 84 87 88 88 87 84 80 78 74 63 60 53 47 54 65 91 78 74 64 67 67 71 59 63 60 62 68 56 58 66 71 75 44 33 39 40 34 41 54 73 66 63
72 73 77 81 85 88 89 90 90 89 88 88 84 71 65 61 43 39 58 81 86 79 71 71 70 81 80 63 58 59 58 65 60 48 66 63 65 40 35 33 33 43 50 42 56 58 70
69 76 80 82 86 88 89 90 88 89 89 88 80 75 71 60 40 44 66 88 85 74 70 76 92 72 84 71 67 63 65 58 55 40 36 49 66 46 43 36 41 41 32 48 43 64 71
70 74 77 81 83 87 88 89 86 89 89 88 72 81 64 52 43 58 83 85 85 75 71 85 83 82 83 77 70 71 70 63 51 51 38 43 54 58 43 46 43 40 46 43 43 47 60
72 75 77 82 85 86 87 89 90 90 91 72 71 83 58 50 75 75 88 86 86 89 74 81 82 85 80 82 85 79 75 60 39 41 48 43 52 57 56 45 39 40 42 37 50 52 48
71 75 78 82 82 87 89 89 85 83 81 74 76 79 59 58 96 91 97 90 84 87 82 84 81 71 79 78 86 65 56 51 41 41 45 37 47 59 56 48 43 45 45 45 44 44 48
68 73 78 83 87 91 89 87 84 82 77 69 72 85 70 63 68 81 89 84 84 81 77 71 78 80 87 70 50 55 70 56 40 38 35 26 47 55 64 54 41 45 48 48 45 51 52
70 75 79 82 87 88 87 83 82 77 71 58 59 68 67 80 77 80 84 81 89 87 67 74 70 72 73 74 76 65 72 77 44 54 50 28 46 37 39 41 35 32 44 45 49 55 58
73 78 81 86 86 85 82 80 77 75 70 57 66 68 63 71 71 80 79 74 77 79 71 77 79 84 71 66 64 68 67 64 52 54 52 53 47 37 47 30 27 43 48 42 42 40 37
75 75 82 84 85 82 79 79 77 74 62 59 56 52 53 73 68 70 69 71 68 77 50 60 75 65 61 52 48 45 43 44 48 52 52 51 43 41 49 33 45 53 55 47 42 44 43
73 74 81 85 85 87 81 77 74 75 64 56 56 53 56 70 69 68 64 63 66 62 53 52 60 53 43 52 51 47 45 43 51 54 50 53 49 44 40 46 59 42 41 39 38 43 42
68 72 78 84 86 87 83 82 75 71 70 62 58 56 55 69 69 68 72 68 64 60 53 47 52 41 41 38 45 49 54 56 57 54 57 52 49 47 49 49 38 45 45 46 48 48 45
67 72 74 78 86 88 87 84 88 73 67 64 68 57 57 61 81 62 66 68 72 73 61 46 45 38 38 31 38 45 47 52 56 59 55 54 48 45 46 48 55 46 43 46 37 53 41
68 73 75 75 79 86 85 88 86 81 81 72 69 58 62 72 68 68 74 70 62 65 57 49 55 57 59 45 46 47 43 42 45 47 55 53 50 45 46 42 40 42 46 41 53 52 45
63 68 73 75 77 75 76 85 88 85 82 72 72 71 70 76 73 66 63 69 67 64 70 57 50 61 60 53 48 46 49 46 45 48 46 46 43 44 40 37 44 41 40 40 40 39 45
65 65 69 75 77 78 77 74 72 61 65 72 80 70 72 80 70 60 61 60 58 55 56 63 59 57 59 54 53 52 54 51 50 50 50 47 45 41 38 34 34 37 36 39 33 39 44
Wind_Direction
295 293 308 329 328 331 340 344 345 345 344 340 335 332 332 332 333 334 334 334 332 331 332 331 331 332 335 325 316 321 321 321 322 317 310 306 301 301 296 298 295 289 293 295 295 295 294
303 311 329 338 346 350 353 354 352 350 348 344 342 342 338 336 335 336 333 331 332 332 332 332 332 336 330 317 330 328 324 319 315 312 310 305 304 302 300 296 293 298 296 296 296 295 295
346 351 354 356 356 357 353 352 352 351 349 347 345 341 337 334 333 333 333 333 333 332 331 330 332 334 323 314 330 327 323 318 314 309 305 305 305 300 304 301 301 299 295 295 294 296 294
351 355 359 357 357 355 351 349 349 348 346 344 341 338 337 336 334 333 332 332 332 330 330 332 337 333 320 334 333 326 321 318 318 314 311 313 310 304 300 303 301 298 297 294 300 300 298
351 354 355 354 351 348 348 347 348 347 345 343 340 338 336 335 335 334 331 328 329 330 333 339 333 329 321 344 335 337 336 330 326 321 318 319 312 303 303 298 297 295 292 292 295 295 297
345 348 348 348 346 347 347 347 347 347 344 342 339 338 337 336 335 334 332 331 333 338 340 340 334 328 325 324 331 329 327 323 318 317 312 308 306 299 298 293 289 292 292 294 295 300 299
344 346 347 348 349 350 348 347 346 345 343 341 339 337 337 336 336 336 336 338 335 330 333 323 314 311 313 318 317 310 309 307 308 304 296 300 296 292 293 288 294 296 294 293 297 300 296
342 343 345 345 347 346 344 343 342 342 341 340 339 337 336 336 335 336 342 337 335 330 319 317 316 314 312 317 315 317 326 312 305 294 300 300 292 295 303 298 294 295 294 294 301 304 299
340 342 341 342 344 343 340 339 339 339 339 338 336 335 335 335 335 339 336 335 339 335 321 322 327 331 335 341 328 329 339 330 321 312 301 299 309 314 300 297 296 297 295 297 298 303 304
338 338 339 340 341 340 338 338 338 337 337 337 336 335 335 335 336 336 332 338 342 340 319 323 331 336 337 334 325 340 345 334 324 314 311 306 308 304 302 300 300 297 301 301 301 303 300
334 336 335 337 335 335 335 334 333 333 333 334 334 334 334 335 331 332 333 339 341 337 316 328 330 344 333 324 331 327 333 324 314 312 312 309 309 306 301 301 302 301 308 305 306 304 304
331 332 332 332 332 333 333 331 331 331 331 331 332 332 332 332 331 332 337 338 335 321 314 324 329 326 322 321 323 329 326 324 322 312 307 302 309 305 304 307 302 309 308 310 310 307 299
329 328 331 332 333 334 332 331 332 332 331 330 330 330 330 331 327 335 336 331 318 311 327 322 322 323 318 317 316 314 310 306 304 306 305 308 304 308 304 300 303 301 304 301 300 300 300
331 331 330 332 335 336 335 335 334 333 332 330 329 328 326 324 324 324 327 319 309 314 311 320 318 315 311 313 310 307 305 302 299 301 303 303 302 304 308 301 303 295 298 297 298 299 304
331 334 335 335 334 335 334 333 332 332 332 333 329 327 324 327 323 319 312 303 307 312 314 315 315 311 309 309 306 309 305 302 302 294 295 300 301 309 311 312 307 303 295 303 298 302 301
333 335 335 336 335 335 335 333 335 333 332 332 328 325 321 330 327 316 304 296 305 307 304 309 301 306 305 305 305 304 303 309 308 301 298 302 297 301 305 307 305 300 308 301 298 297 296
336 338 339 338 338 338 338 338 340 336 333 331 328 324 331 337 333 316 302 304 307 305 301 303 298 300 298 297 300 299 298 303 302 305 295 297 293 299 302 294 292 298 294 296 299 295 297
339 339 340 339 340 341 341 339 338 338 338 339 330 321 336 336 318 315 307 309 308 306 301 302 298 293 295 297 297 292 290 291 301 300 291 289 299 288 291 303 304 301 297 288 289 294 294
343 343 342 343 345 343 341 340 340 340 341 336 327 320 329 326 314 313 311 310 311 308 307 308 301 293 300 296 295 284 292 301 294 288 296 298 292 290 295 299 302 297 299 295 294 297 291
348 346 345 345 345 344 343 344 345 344 343 340 331 327 331 329 327 325 325 326 325 329 329 329 324 313 318 296 288 287 297 305 299 282 275 277 288 286 287 298 307 297 300 298 291 290 294
352 350 349 349 348 348 348 348 349 351 351 350 344 337 341 331 333 333 333 330 326 325 325 328 318 327 327 312 308 306 303 298 307 301 292 277 290 293 304 309 308 310 313 306 293 296 293
356 356 355 354 354 354 355 357 359 359 1 0 348 347 350 345 344 340 342 339 333 330 326 321 316 314 316 313 311 311 312 313 312 304 301 299 281 296 301 313 323 312 317 317 314 315 314
4 5 2 1 1 3 4 4 6 9 16 10 9 8 4 358 358 358 356 351 347 343 344 341 329 320 318 314 315 334 344 347 324 314 312 301 293 289 290 297 305 303 313 317 318 317 309
8 10 9 9 11 10 14 15 17 19 26 27 24 23 18 9 11 9 7 5 360 358 354 356 353 345 333 315 312 311 317 332 334 338 326 299 300 305 294 297 297 306 320 328 323 321 322
14 17 16 18 18 19 19 22 25 27 29 34 32 31 28 22 20 18 13 13 12 11 12 16 16 19 357 339 330 315 301 294 306 326 332 325 303 304 295 302 304 306 315 317 314 313 322
25 24 24 24 22 24 27 29 29 37 40 43 37 45 39 30 21 27 26 23 19 15 15 27 30 36 39 42 6 341 326 315 307 305 318 331 325 304 299 302 299 305 323 327 326 309 328
32 31 28 27 29 29 31 32 34 39 41 48 42 49 46 41 39 39 34 32 32 29 30 34 26 23 23 34 21 6 359 348 335 329 315 315 323 322 314 306 309 321 325 332 312 314 327
33 31 30 32 32 37 38 35 36 40 41 49 47 50 54 51 47 48 49 42 41 40 34 38 45 33 27 34 38 35 27 22 21 7 352 344 333 331 331 327 318 334 335 330 335 338 335
34 39 41 40 38 36 36 38 40 44 44 46 49 58 59 52 53 59 57 54 52 52 50 43 48 48 44 42 42 45 37 36 34 26 12 10 13 11 7 8 5 6 4 0 16 1 352